TimeCDT,TemperatureF,Dew PointF,Humidity,Sea Level PressureIn,VisibilityMPH,Wind Direction,Wind SpeedMPH,Gust SpeedMPH,PrecipitationIn,Events,Conditions,WindDirDegrees,DateUTC
12:53 AM,66.0,59.0,78,29.95,10.0,SE,6.9,-,N/A,,Clear,140,2013-09-27 05:53:00
1:53 AM,64.9,59.0,81,29.96,10.0,SE,8.1,-,N/A,,Clear,130,2013-09-27 06:53:00
2:53 AM,63.0,59.0,87,29.96,10.0,SE,5.8,-,N/A,,Clear,130,2013-09-27 07:53:00
3:53 AM,63.0,59.0,87,29.96,9.0,SE,8.1,-,N/A,,Clear,130,2013-09-27 08:53:00
4:53 AM,63.0,57.9,84,29.96,9.0,SE,9.2,-,N/A,,Clear,140,2013-09-27 09:53:00
5:53 AM,62.1,57.9,86,29.97,8.0,SE,9.2,-,N/A,,Clear,140,2013-09-27 10:53:00
6:53 AM,61.0,57.9,90,29.98,8.0,SE,8.1,-,N/A,,Clear,140,2013-09-27 11:53:00
7:53 AM,62.1,57.9,86,29.99,7.0,SE,9.2,-,N/A,,Clear,140,2013-09-27 12:53:00
8:53 AM,66.0,60.1,81,29.99,9.0,SSE,10.4,-,N/A,,Clear,150,2013-09-27 13:53:00
9:53 AM,73.9,62.1,66,29.98,10.0,SSE,18.4,24.2,N/A,,Clear,160,2013-09-27 14:53:00
10:53 AM,77.0,61.0,58,29.98,10.0,South,18.4,25.3,N/A,,Clear,170,2013-09-27 15:53:00
11:53 AM,81.0,62.1,52,29.96,10.0,South,13.8,-,N/A,,Clear,170,2013-09-27 16:53:00
12:53 PM,82.9,61.0,47,29.94,10.0,SSE,15.0,24.2,N/A,,Clear,160,2013-09-27 17:53:00
1:53 PM,84.0,60.1,44,29.91,10.0,SSE,20.7,28.8,N/A,,Clear,150,2013-09-27 18:53:00
2:53 PM,84.9,59.0,41,29.90,10.0,SSE,20.7,27.6,N/A,,Clear,150,2013-09-27 19:53:00
3:53 PM,84.0,59.0,43,29.88,10.0,SSE,21.9,29.9,N/A,,Clear,160,2013-09-27 20:53:00
4:53 PM,82.9,59.0,44,29.89,10.0,SSE,17.3,26.5,N/A,,Clear,160,2013-09-27 21:53:00
5:53 PM,81.0,60.1,49,29.89,10.0,SSE,17.3,26.5,N/A,,Clear,150,2013-09-27 22:53:00
6:53 PM,78.1,59.0,52,29.89,10.0,SSE,11.5,-,N/A,,Clear,150,2013-09-27 23:53:00
7:53 PM,73.9,59.0,59,29.89,10.0,SE,10.4,-,N/A,,Clear,140,2013-09-28 00:53:00
8:53 PM,72.0,59.0,64,29.91,10.0,SE,10.4,-,N/A,,Clear,140,2013-09-28 01:53:00
9:53 PM,71.1,59.0,66,29.90,10.0,SSE,10.4,-,N/A,,Clear,150,2013-09-28 02:53:00
10:53 PM,70.0,59.0,68,29.91,10.0,SE,11.5,-,N/A,,Scattered Clouds,140,2013-09-28 03:53:00
11:53 PM,68.0,59.0,73,29.88,10.0,SSE,11.5,-,N/A,,Clear,150,2013-09-28 04:53:00